Retour au catalogue

YZ-1 R/B

ActifMEO
NORAD 61185·ROCKET BODY·🇨🇳 China

Lancé Sep 19, 2024 depuis Xichang Satellite Launch Center

Loading…

Prochains Passages (prochaines 24 heures)

TLE

FraisSource: Space-Track

Époque: Sep 14, 2026, 08:33 UTC

1 61185U 24168A   26257.35659536 -.00000067  00000-0  00000-0 0  9990
2 61185  54.3037 300.7893 0076870 310.0490  49.3420  1.80096015 13073

Suivez YZ-1 R/B en temps réel avec AllMySat

Download on the App Store